Flag for Russia Weather past 2 weeks in Ulyanovsk, Russia

Now
36 °F

Light rain. Fog.


Feels Like: 31 °F
Forecast: 22 / 41 °F
Wind: 6 mph from Southeast

Location: Ulyanovsk

Current Time: Oct 21, 2014 at 9:50:41 PM

Latest Report: Oct 21, 2014 at 9:00 PM


Visibility: 3 mi

Pressure: 29.42 "Hg

Humidity: 100%

Dew point: 36 °F

Location of UlyanovskLocation

Historic Weather in Ulyanovsk — Graph

°F

Ulyanovsk temperature yesterday

Maximum temperature yesterday: 32 °F (at 2:00 PM)
Minimum temperature yesterday: 23 °F (at 5:00 AM)
Average temperature yesterday: 28 °F

Past Weeks' High & Low Weather Summary

 TemperatureHumidityPressure
High66 °F (Oct 13, 3:00 PM)100% (Oct 10, 1:00 AM)30.54 "Hg (Oct 10, 1:00 AM)
Low23 °F (Oct 20, 5:00 AM)49% (Oct 11, 1:00 PM)29.39 "Hg (Oct 17, 8:00 PM)
Average42 °F84%29.98 "Hg
* Reported Oct 6 8:00 PM — Oct 21 8:00 PM, Ulyanovsk, Weather by CustomWeather, © 2014

Note: Actual official high and low records may vary slightly from our data, if they occured in-between our weather recording intervals... More about our weather records

Advertising

Ulyanovsk weather history for previous 24 hours

 ConditionsComfort  
Time TempWeatherWind HumidityBarometerVisibility
8:00 PM
Oct 21
36 °FLight rain. Fog.6 mph100%29.42 "Hg3 mi
7:00 PM34 °FLight rain. Fog.8 mph100%29.45 "Hg2 mi
6:00 PM34 °FLight rain. Fog.8 mph100%29.47 "Hg2 mi
5:00 PM34 °FLight rain. Low clouds.8 mph100%29.47 "Hg2 mi
4:00 PM34 °FLight rain. Low clouds.6 mph100%29.50 "Hg2 mi
3:00 PM36 °FLow clouds.8 mph93%29.50 "Hg5 mi
2:00 PM36 °FLow clouds.8 mph93%29.53 "Hg5 mi
1:00 PM36 °FLow clouds.8 mph87%29.53 "Hg5 mi
12:00 PM34 °FLow clouds.3 mph100%29.53 "Hg5 mi
11:00 AM34 °FLow clouds.6 mph93%29.53 "Hg5 mi
10:00 AM32 °FIce fog.6 mph100%29.50 "Hg3 mi
9:00 AM32 °FIce fog.3 mph93%29.50 "Hg3 mi
8:00 AM30 °FLow clouds.3 mph100%29.53 "Hg5 mi
7:00 AM30 °FLow clouds.3 mph100%29.50 "HgN/A
6:00 AM30 °FLow clouds.3 mph100%29.50 "HgN/A
5:00 AM30 °FLow clouds.3 mph93%29.50 "HgN/A
4:00 AM30 °FLow clouds.6 mph100%29.50 "HgN/A
3:00 AM30 °FLow clouds.6 mph100%29.50 "HgN/A
2:00 AM30 °FLow clouds.6 mph100%29.50 "HgN/A
1:00 AM30 °FLow clouds.10 mph100%29.50 "HgN/A
12:00 AM30 °FLight rain. Low clouds.10 mph100%29.50 "Hg3 mi
11:00 PM
Oct 20
30 °FRain. Low clouds.10 mph93%29.53 "Hg1 mi
10:00 PM30 °FRain. Low clouds.10 mph93%29.56 "Hg1 mi
9:00 PM30 °FRain. Low clouds.10 mph93%29.59 "Hg1 mi
Weather by CustomWeather, © 2014

See weather overviewHow to use our weather pages